Regional Weather Roundup
Issued by NWS Sioux Falls, SD

Home | Current Version | Previous Version | Graphics & Text | Print | Product List | Glossary On
Versions: 1 2 3 4 5 6 7 8 9 10 11 12 13 14 15 16 17 18 19 20 21 22 23 24 25 26 27 28 29 30 31 32 33 34 35 36 37 38 39 40 41 42 43 44 45 46 47 48 49 50
000
ASUS43 KFSD 270710
RWRFSD

WEATHER ROUNDUP FOR SE SOUTH DAKOTA/SW MINNESOTA/NW IOWA
NATIONAL WEATHER SERVICE SIOUX FALLS SD
200 AM CDT FRI MAR 27 2015

NOTE: "FAIR" INDICATES FEW OR NO CLOUDS BELOW 12,000 FEET WITH NO
SIGNIFICANT WEATHER AND OR OBSTRUCTIONS TO VISIBILITY.


SDZ038>040-050-052>070-270800-
SOUTHEAST SOUTH DAKOTA

CITY           SKY/WX    TMP DP  RH WIND       PRES   REMARKS
CHAMBERLAIN    CLEAR     15  11  84 CALM      30.27R
HURON          CLEAR     14  10  84 CALM      30.29R
MADISON        FAIR      14  14 100 N9        30.25S WCI   2
MITCHELL       CLEAR     20  14  77 CALM      30.29S
SIOUX FALLS    CLEAR     19  13  77 N5        30.26S WCI  12
WINNER         CLOUDY    30  26  85 NE5       30.24R WCI  25
YANKTON        CLEAR     25  16  68 N7        30.28S WCI  17
$$

MNZ071-072-080-081-089-090-097-098-270800-
SOUTHWEST MINNESOTA

CITY           SKY/WX    TMP DP  RH WIND       PRES   REMARKS
FAIRMONT       CLEAR     23  16  74 NW9       30.21R WCI  13
JACKSON        PTCLDY    23  16  74 N7        30.22S WCI  15
LUVERNE        CLEAR     27  14  59 N7        30.25F WCI  19
MARSHALL       CLEAR     18  10  73 NW9       30.27S WCI   6
MONTEVIDEO     CLEAR     21  16  79 N7        30.29R WCI  13
PIPESTONE      CLEAR     19  12  73 N3        30.24S
REDWOOD FALLS  CLEAR     23  13  65 N9        30.26R WCI  13
TRACY          CLEAR     22  15  76 NW9       30.25S WCI  12
WINDOM         CLEAR     19  16  86 NW12      30.22S WCI   7
WORTHINGTON    CLEAR     18  10  73 NW9       30.24R WCI   6
$$

IAZ001>003-012>014-020>022-031-032-NEZ013-014-SDZ071-270800-
NORTHWEST IOWA

CITY           SKY/WX    TMP DP  RH WIND       PRES   REMARKS
CHEROKEE       CLEAR     24  18  78 N6        30.24S WCI  17
DENISON        CLEAR     27  21  80 N7        30.21R WCI  19
ESTHERVILLE    CLEAR     22  16  78 N10       30.21R WCI  11
LE MARS        CLEAR     25  19  80 N7        30.26S WCI  17
ORANGE CITY    CLEAR     25  18  74 N8        30.24S WCI  16
SHELDON        CLEAR     19  16  86 NW8       30.23S WCI   9
SIOUX CITY     CLEAR     26  18  71 N8        30.26R WCI  18
SPENCER        CLEAR     20  14  77 NW9       30.23R WCI   9
STORM LAKE     CLEAR     21  18  86 N12       30.22S WCI   9
$$

ABBREVIATIONS USED IN REMARKS
   TC - TEMPERATURE IN CELSIUS
  WCI - WIND CHILL INDEX
   HX - HEAT INDEX
  VSB - VISIBILITY




USA.gov is the U.S. government's official web portal to all federal, state and local government web resources and services.